Jackson, KY

11:16 AM EDT on August 18, 2017 (GMT -0400)
Carroll

Weather History for KJKL - October, 2010

Change the Weather History Date:

Thursday, October 21, 2010

  Actual Average Record
Temperature  
Mean Temperature 60 °F 57 °F  
Max Temperature 70 °F 67 °F 83 °F (2007)
Min Temperature 49 °F 47 °F 33 °F (2006)
Degree Days  
Heating Degree Days 5 9  
Month to date heating degree days 120 142  
Since 1 July heating degree days 145 194  
Cooling Degree Days 0 1  
Month to date cooling degree days 16 27  
Year to date cooling degree days 1497 1148  
Growing Degree Days 10 (Base 50)    
Moisture  
Dew Point 31 °F    
Average Humidity 39    
Maximum Humidity 54    
Minimum Humidity 23    
Precipitation  
Precipitation 0.00 in 0.10 in 1.87 in (1985)
Month to date precipitation 0.20 2.09  
Year to date precipitation 35.04 39.10  
Snow  
Snow 0.00 in 0.00 in 0.00 in (2002)
Month to date snowfall 0.0 0.0  
Since 1 July snowfall 0.0 0.0  
Since 1 September snowfall 0.0 0.0  
Snow Depth 0.00 in    
Sea Level Pressure  
Sea Level Pressure 29.90 in    
Wind  
Wind Speed 7 mph (WNW)    
Max Wind Speed 17 mph    
Max Gust Speed 28 mph    
Visibility 10 miles    
Events      
T = Trace of Precipitation, MM = Missing Value Source: NWS Daily Summary

Daily Weather History Graph

Daily Weather History Graph

Search for Another Location

Airport or City:

Trip Planner

Search our weather history database for the weather conditions in past years. The results will help you decide how hot, cold, wet, or windy it might be!

Date:

Astronomy

Oct. 21, 2010 Rise Set
Actual Time 7:47 AM EDT 6:47 PM EDT
Civil Twilight 7:20 AM EDT 7:14 PM EDT
Nautical Twilight 6:50 AM EDT 7:45 PM EDT
Astronomical Twilight 6:19 AM EDT 8:15 PM EDT
Moon 5:48 PM EDT (10/21) 6:26 AM EDT (10/21)
Length of Visible Light 11h 53m
Length of Day
11h 00m
Waxing Gibbous, 98% of the Moon is Illuminated
Oct 21
Waxing Gibbous
Oct 22
Full
Oct 30
Last Quarter
Nov 6
New
Nov 13
First Quarter

Hourly Weather History & Observations

Time (EDT) Temp. Dew Point Humidity Pressure Visibility Wind Dir Wind Speed Gust Speed Precip Events Conditions
12:53 AM 52.0 °F 32.0 °F 47% 29.88 in 10.0 mi Variable 3.5 mph - N/A   Clear
1:53 AM 53.1 °F 32.0 °F 45% 29.87 in 10.0 mi Variable 4.6 mph - N/A   Clear
2:53 AM 53.1 °F 32.0 °F 45% 29.86 in 10.0 mi Variable 4.6 mph - N/A   Clear
3:53 AM 53.1 °F 33.1 °F 47% 29.85 in 10.0 mi Variable 4.6 mph - N/A   Clear
4:53 AM 53.1 °F 33.1 °F 47% 29.83 in 10.0 mi Variable 5.8 mph - N/A   Clear
5:53 AM 53.1 °F 34.0 °F 48% 29.84 in 10.0 mi SW 8.1 mph - N/A   Clear
6:53 AM 52.0 °F 34.0 °F 50% 29.85 in 10.0 mi SW 5.8 mph - N/A   Clear
7:53 AM 51.1 °F 35.1 °F 54% 29.86 in 10.0 mi Variable 4.6 mph - N/A   Clear
8:53 AM 54.0 °F 36.0 °F 51% 29.86 in 10.0 mi Variable 4.6 mph - N/A   Clear
9:53 AM 57.0 °F 36.0 °F 45% 29.88 in 10.0 mi Variable 5.8 mph - N/A   Clear
10:53 AM 61.0 °F 37.0 °F 41% 29.88 in 10.0 mi West 12.7 mph 23.0 mph N/A   Clear
11:53 AM 64.0 °F 37.0 °F 37% 29.88 in 10.0 mi WSW 10.4 mph 21.9 mph N/A   Clear
12:53 PM 66.0 °F 34.0 °F 30% 29.87 in 10.0 mi WNW 12.7 mph 27.6 mph N/A   Clear
1:53 PM 66.9 °F 30.9 °F 26% 29.87 in 10.0 mi WNW 11.5 mph 23.0 mph N/A   Clear
2:53 PM 69.1 °F 30.0 °F 23% 29.87 in 10.0 mi West 13.8 mph 23.0 mph N/A   Clear
3:53 PM 70.0 °F 30.0 °F 23% 29.87 in 10.0 mi West 10.4 mph 20.7 mph N/A   Clear
4:53 PM 66.9 °F 28.0 °F 23% 29.88 in 10.0 mi West 9.2 mph 21.9 mph N/A   Clear
5:53 PM 64.9 °F 27.0 °F 24% 29.90 in 10.0 mi NW 11.5 mph 17.3 mph N/A   Clear
6:53 PM 61.0 °F 28.9 °F 30% 29.92 in 10.0 mi WNW 8.1 mph - N/A   Clear
7:53 PM 59.0 °F 30.0 °F 33% 29.96 in 10.0 mi NW 8.1 mph - N/A   Clear
8:53 PM 57.0 °F 26.1 °F 30% 29.98 in 10.0 mi Variable 6.9 mph - N/A   Clear
9:53 PM 55.0 °F 24.1 °F 30% 30.00 in 10.0 mi Variable 4.6 mph - N/A   Clear
10:53 PM 53.1 °F 23.0 °F 31% 30.02 in 10.0 mi NNE 4.6 mph - N/A   Clear
11:53 PM 51.1 °F 23.0 °F 33% 30.03 in 10.0 mi North 3.5 mph - N/A   Clear